Probability
2 2 3 3 3 1 0 0 0 1 1 0 0 0 0 0 0 0 0 0 0 0 0 0 0 0 0 0 0 0 0 0 0 0 0 0 0 0 0 0 0 0 0
1 1 2 3 3 2 1 1 1 2 2 1 0 0 0 0 0 0 0 0 0 0 0 0 0 0 0 0 0 0 0 0 0 0 0 0 0 0 0 0 0 0 0
0 0 1 2 2 2 2 2 2 3 2 1 0 0 0 0 0 0 0 0 0 0 0 0 0 0 0 0 0 0 0 0 0 0 0 0 0 0 0 0 0 0 0
0 0 0 1 1 1 2 2 3 3 2 1 0 0 0 0 0 0 0 0 0 0 0 0 0 0 0 0 0 0 0 0 0 0 0 0 0 0 0 0 0 0 0
0 0 0 0 0 0 0 1 2 2 1 0 0 0 0 0 0 0 0 0 0 0 0 0 0 0 0 0 0 0 0 0 0 0 0 0 0 0 0 0 0 0 0
0 0 0 0 0 0 0 0 1 1 0 0 0 0 0 0 0 0 0 0 0 0 0 0 0 0 0 0 0 0 0 0 0 0 0 0 0 0 0 0 0 0 0
0 0 0 0 0 0 0 0 0 0 0 0 0 0 0 0 0 0 0 0 0 0 0 0 0 0 0 0 0 0 0 0 0 0 0 0 0 0 0 0 0 0 0
0 0 0 0 0 0 0 0 0 0 0 0 0 0 0 0 0 0 0 0 0 0 0 0 0 0 0 0 0 0 0 0 0 0 0 0 0 0 0 0 0 0 0
0 0 0 0 0 0 0 0 0 0 0 0 0 0 0 0 0 0 0 0 0 0 0 0 0 0 0 0 0 0 0 0 0 0 0 0 0 0 0 0 0 0 0
0 0 0 0 0 0 0 0 0 0 0 0 0 0 0 0 0 0 0 0 0 0 0 0 0 0 0 0 0 0 0 0 0 0 0 0 0 0 0 0 0 0 0
0 0 0 0 0 0 0 0 0 0 0 0 0 0 0 0 0 0 0 0 0 0 0 0 0 0 0 0 0 0 0 0 0 0 0 0 0 0 0 0 0 0 0
0 0 0 0 0 0 0 0 0 0 0 0 0 0 0 0 0 0 0 0 0 0 0 0 0 0 0 0 0 0 0 0 0 0 0 0 0 0 0 0 0 0 0
0 0 0 0 0 0 0 0 0 0 0 0 0 0 0 0 0 0 0 0 0 0 0 0 0 0 0 0 0 0 0 0 0 0 0 0 0 0 0 0 0 0 0
0 0 0 0 0 0 0 0 0 0 0 0 0 0 0 0 0 0 0 0 0 0 0 0 0 0 0 0 0 0 0 0 0 0 0 0 0 0 0 0 0 0 0
0 0 0 0 0 0 0 0 0 0 0 0 0 0 0 0 0 0 0 0 0 0 0 0 0 0 0 0 0 0 0 0 0 0 0 0 0 0 0 0 0 0 0
0 0 0 0 0 0 0 0 0 0 0 0 0 0 0 0 0 0 0 0 0 0 0 0 0 0 0 0 0 0 0 0 0 0 0 0 0 0 0 0 0 0 0
0 0 0 0 0 0 0 0 0 0 0 0 0 0 0 0 0 0 0 0 0 0 0 0 0 0 0 0 0 0 0 0 0 0 0 0 0 0 0 0 0 0 0
0 0 0 0 0 0 0 0 0 0 0 0 0 0 0 0 0 0 0 0 0 0 0 0 0 0 0 0 0 0 0 0 0 0 0 0 0 0 0 0 0 0 0
0 0 0 0 0 0 0 0 0 0 0 0 0 0 0 0 0 0 0 0 0 0 0 0 0 0 0 0 0 0 0 0 0 0 0 0 0 0 0 0 0 0 0
0 0 0 0 0 0 0 0 0 0 0 0 0 0 0 0 0 0 0 0 0 0 0 0 0 0 0 0 0 0 0 0 0 0 0 0 0 0 0 0 0 0 0
0 0 0 0 0 0 0 0 0 0 0 0 0 0 0 0 0 0 0 0 0 0 0 0 0 0 0 0 0 0 0 0 0 0 0 0 0 0 0 0 0 0 0
0 0 0 0 0 0 0 0 0 0 0 0 0 0 0 0 0 0 0 0 0 0 0 0 0 0 0 0 0 0 0 0 0 0 0 0 0 0 0 0 0 0 0
0 0 0 0 0 0 0 0 0 0 0 0 0 0 0 0 0 0 0 0 0 0 0 0 0 0 0 0 0 0 0 0 0 0 0 0 0 0 0 0 0 0 0
0 0 0 0 0 0 0 0 0 0 0 0 0 0 0 0 0 0 0 0 0 0 0 0 0 0 0 0 0 0 0 0 0 0 0 0 0 0 0 0 0 0 0
0 0 0 0 0 0 0 0 0 0 0 0 0 0 0 0 0 0 0 0 0 0 0 0 0 0 0 0 0 0 0 0 0 0 0 0 0 0 0 0 0 0 0
0 0 0 0 0 0 0 0 0 0 0 0 0 0 0 0 0 0 0 0 0 0 0 0 0 0 0 0 0 0 0 0 0 0 0 0 0 0 0 0 0 0 0
Wind_Speed
1 1 1 1 0 1 1 0 0 0 1 1 1 1 2 2 2 2 3 3 4 4 4 4 4 3 3 3 3 3 3 3 5 5 3 3 3 4 4 3 3 3 4
1 1 1 1 1 1 0 0 0 0 0 1 1 1 1 1 2 2 3 3 4 4 4 4 4 3 4 3 3 4 4 3 4 6 5 3 4 3 3 4 4 4 4
1 1 1 1 0 0 0 0 0 0 0 1 1 1 1 2 2 2 3 3 4 4 4 4 4 4 5 4 4 4 4 3 3 4 5 4 3 3 3 4 4 4 4
1 1 1 1 1 0 1 0 0 0 0 1 1 1 1 2 2 2 3 3 3 3 3 4 4 4 5 4 4 4 4 3 3 3 4 4 3 3 2 3 4 3 4
1 1 1 1 1 1 1 1 1 1 1 1 1 1 1 1 2 2 2 3 3 3 3 3 3 4 6 5 4 4 4 3 3 3 4 4 4 3 3 3 4 4 5
1 1 2 2 2 1 1 1 1 1 1 1 1 1 1 2 3 5 4 3 3 3 3 3 3 3 5 6 6 6 6 5 5 4 4 5 5 4 3 3 3 4 5
1 1 2 2 2 2 2 2 1 1 1 1 2 1 2 3 5 5 5 3 3 3 3 3 3 3 3 3 5 6 6 7 7 5 6 6 6 5 4 5 5 5 6
1 1 2 2 2 2 2 2 2 2 1 2 2 2 2 3 5 5 5 3 3 3 3 3 3 3 4 4 3 3 4 4 5 4 5 5 5 4 5 5 5 5 5
1 1 2 1 2 2 2 2 2 2 2 2 2 2 2 3 5 6 5 2 3 4 3 3 3 3 6 6 3 3 4 4 5 5 7 7 7 6 4 2 2 3 5
2 2 2 2 1 2 2 3 3 2 2 2 3 2 2 2 5 6 5 2 3 3 3 3 4 5 6 5 3 3 4 4 3 4 5 5 5 5 5 4 3 3 4
3 3 3 2 2 2 2 2 2 2 2 2 2 3 2 2 4 6 6 2 2 3 3 3 3 7 7 6 5 4 5 4 3 3 3 3 3 3 3 3 3 4 4
3 3 3 3 3 2 2 2 2 2 2 2 2 3 2 2 3 5 7 6 5 3 3 3 4 7 8 7 5 5 5 3 1 1 2 2 3 3 3 4 4 4 4
3 3 3 3 3 2 2 2 2 2 2 2 2 2 3 2 3 6 7 7 7 4 3 6 7 7 6 4 5 6 3 1 1 2 2 3 3 3 3 3 4 4 4
3 3 3 2 2 2 2 2 2 2 2 2 2 3 3 3 3 3 3 3 4 4 3 4 5 5 4 4 3 3 1 1 1 2 2 3 2 2 2 3 3 4 4
3 3 3 2 2 2 2 2 2 2 3 3 3 2 3 3 5 7 4 3 3 3 3 2 2 2 2 2 2 1 1 1 1 2 2 2 2 2 3 3 2 3 3
3 3 2 2 2 2 2 3 4 4 5 6 6 5 4 6 9 8 7 7 6 5 2 1 2 2 2 2 2 2 2 2 2 2 2 2 3 3 3 3 3 3 4
2 3 3 2 2 2 2 2 3 5 6 6 6 7 7 8 9 8 7 6 5 4 1 2 2 2 2 2 2 2 2 2 2 2 2 2 3 3 3 3 3 3 4
3 3 3 2 2 2 2 2 2 3 4 4 5 7 8 9 9 8 7 5 3 2 1 2 2 2 2 2 2 2 2 2 2 2 2 3 3 3 3 4 3 4 4
3 2 2 2 2 2 2 2 2 3 3 4 4 5 6 8 8 7 5 2 2 2 2 2 2 2 2 2 2 3 3 3 3 3 3 3 3 3 4 4 4 4 4
2 3 3 2 2 2 2 2 2 3 3 3 4 4 4 3 3 4 2 2 2 3 2 2 3 3 2 2 2 3 3 3 3 3 3 3 3 3 4 4 4 4 4
2 2 3 2 2 2 2 3 3 3 3 4 4 5 8 4 3 4 3 3 3 3 3 3 3 3 3 2 2 3 3 3 3 3 3 3 3 3 3 3 4 4 4
2 2 2 2 2 2 3 3 3 3 4 4 4 5 8 4 3 4 4 3 3 3 3 3 3 3 3 3 3 3 3 4 3 3 4 4 3 3 3 3 3 3 3
2 2 2 2 2 3 3 3 3 3 4 4 4 4 4 4 4 4 4 4 4 3 3 2 3 4 3 3 3 4 4 4 4 4 4 4 4 3 3 4 4 4 4
2 2 3 3 3 2 3 3 3 4 4 4 4 4 4 4 4 5 4 4 4 3 3 3 4 5 6 5 4 3 4 5 4 4 5 5 5 4 4 4 4 4 4
2 3 3 3 3 3 3 4 4 4 4 4 4 4 4 4 5 5 4 4 4 4 4 4 4 4 6 7 6 5 7 8 7 4 4 4 5 5 4 4 4 4 4
3 3 3 3 3 3 4 4 4 4 4 4 4 5 5 5 5 5 5 4 4 4 4 4 5 6 7 6 7 8 8 8 8 7 5 4 4 4 4 4 4 4 4
Wind_Direction
67 70 83 85 96 117 124 165 235 227 219 227 231 235 243 239 232 222 225 226 227 233 235 233 239 238 240 239 241 246 247 244 264 284 288 292 292 295 302 302 296 292 295
55 70 76 89 89 98 97 44 307 264 250 259 257 251 260 262 249 239 239 236 232 234 236 237 240 240 240 241 240 246 248 242 252 278 290 291 290 282 293 300 299 296 294
57 57 59 60 86 80 21 295 328 309 286 289 269 259 265 270 261 257 249 245 243 242 239 239 244 240 246 246 242 246 251 252 249 262 279 286 292 290 300 301 296 294 294
67 59 44 21 13 5 5 10 354 313 293 300 302 290 279 278 276 275 267 257 254 255 250 247 247 240 245 247 247 248 251 255 255 256 271 282 287 286 287 296 302 297 293
67 50 13 9 17 16 12 359 340 332 327 325 320 314 300 280 278 279 272 264 262 268 270 263 261 262 263 259 257 251 243 246 251 256 265 280 280 287 274 277 284 297 290
46 17 12 13 12 10 1 351 354 348 342 342 324 311 310 304 307 306 304 287 278 270 274 277 276 267 277 279 282 276 264 250 246 249 260 262 269 273 278 274 281 291 285
37 12 10 8 5 1 359 356 340 331 335 333 322 329 330 322 319 314 313 305 294 284 279 279 281 283 273 273 281 285 279 277 265 250 252 257 261 258 258 265 266 271 274
39 14 7 4 355 352 356 349 341 338 330 324 323 329 332 329 328 325 320 312 300 291 280 269 267 274 273 280 273 274 277 278 279 274 256 258 260 254 243 249 259 276 285
5 346 345 349 342 343 340 337 333 333 330 322 320 328 322 322 329 329 328 312 304 298 292 285 278 273 281 285 273 272 282 287 296 291 287 281 278 277 272 270 272 280 282
342 337 337 334 327 322 319 323 326 323 316 318 321 320 307 307 325 332 333 322 310 307 307 299 291 292 292 284 263 257 269 280 291 302 300 301 290 271 267 247 240 261 278
346 342 338 334 324 308 311 314 317 315 315 313 312 316 311 305 320 332 332 327 306 303 303 305 301 303 301 292 291 274 274 283 276 282 292 296 303 296 279 269 251 246 256
345 333 328 324 317 310 313 313 311 309 306 304 310 317 318 318 326 325 328 326 323 299 295 298 298 303 301 300 296 296 298 299 275 276 283 287 292 296 303 298 284 273 265
338 323 316 315 310 307 302 300 307 307 300 299 298 299 307 318 321 325 323 321 321 313 298 303 306 306 305 302 300 302 304 295 280 278 275 277 283 286 295 303 301 292 287
323 315 313 316 316 317 308 297 293 291 287 291 294 296 299 304 305 308 308 314 317 310 303 304 313 315 316 317 311 314 311 284 273 271 279 287 300 302 296 299 300 306 300
319 313 315 312 309 318 316 305 296 284 266 271 275 277 288 293 296 308 313 304 301 293 311 319 319 325 321 323 332 333 333 339 318 303 287 295 296 295 295 299 295 300 289
319 320 317 313 313 315 317 326 326 309 311 307 299 293 293 295 305 310 312 313 316 318 322 297 301 304 297 302 310 310 305 306 302 300 300 293 285 281 287 292 294 288 288
300 303 305 306 310 314 315 314 319 335 334 324 316 311 306 308 312 312 313 317 322 330 312 285 283 284 289 291 287 289 288 287 289 289 289 290 291 287 282 282 283 284 283
302 297 296 298 301 300 295 295 298 305 316 320 325 322 322 321 319 319 321 328 321 321 280 275 277 280 282 282 285 289 293 299 295 287 286 285 283 285 286 282 278 281 283
303 302 301 299 298 294 293 295 296 296 298 303 312 320 326 323 322 325 333 316 282 284 283 282 280 277 280 279 281 282 283 284 288 289 283 280 278 282 286 288 287 284 281
302 305 306 303 303 301 301 299 299 298 299 302 305 309 315 319 317 318 318 292 277 275 276 277 282 281 275 272 276 279 282 281 281 281 284 282 277 274 280 286 286 288 286
299 303 305 303 301 303 303 299 297 295 294 296 296 299 308 309 304 301 296 288 277 276 274 274 277 280 275 273 272 271 272 277 279 281 284 284 283 280 278 278 281 281 288
285 287 292 294 299 300 297 296 295 293 292 293 298 303 311 312 301 296 292 285 278 272 267 268 270 268 263 263 266 268 269 272 274 276 279 279 279 281 282 280 282 285 284
292 296 299 298 294 294 296 294 293 292 291 293 298 301 303 299 294 292 291 289 288 284 279 271 271 276 274 268 260 257 262 266 267 269 273 275 274 271 274 277 277 279 279
293 289 290 292 292 287 287 289 289 290 291 293 295 297 297 296 293 292 291 288 287 283 278 273 267 269 274 276 271 264 261 265 265 259 257 260 263 265 269 273 273 273 272
289 287 283 282 284 286 287 288 288 289 290 291 293 294 295 295 294 295 296 288 285 285 286 284 279 275 272 273 274 273 274 275 272 262 253 250 252 252 257 261 264 270 274
283 283 282 280 280 282 283 286 287 289 290 290 290 289 290 291 291 293 294 292 290 291 291 288 283 282 280 277 274 274 274 273 269 257 245 242 242 242 244 251 257 260 264